x

Buoy I01 - Eastern Maine Shelf (44034) Wave Buoy

5:04am - Mon 20th Nov 2017 All times are EST. -5 hours from GMT.

  • Sig Wave height 7.9ft
  • Peak Period 11s
  • Wind
    20mph, 27mph gusts
  • Sea Temp 51°f
  • Air Temp 37°f
  • Sea Pressure 1001.8mb
  • Buoy I01 - Eastern Maine Shelf
  • Buoy I01 - Eastern Maine Shelf

More Historic Weather Station data

Upgrade to MSW Pro to gain access to the past 30 days of data for over 8000 Wavebouys and Weather Stations around the globe.

Join

Comparision Forecast

View Surf forecast
   
Mon 11/20 5:04am 8ft 11s 20 27 mph 1001.8mb 51f 37f
4:04am 8.5ft 11s 25 29 mph 1000.9mb 51f 37f
3:04am 9ft 11s 25 29 mph 999.8mb 51f 37f
2:04am 8ft 11s 22 29 mph 999.6mb 51f 38f
1:04am 9ft 11s 27 31 mph 998.4mb 51f 38f
12:04am 10ft 8s 25 31 mph 998.2mb 51f 38f
Sun 11/19 11:04pm 7.5ft 8s 27 34 mph 997.2mb 51f 39f
10:04pm 10.5ft 8s 29 36 mph 996.4mb 51f 39f
9:04pm 9.5ft 8s 25 31 mph 994.9mb 51f 40f
8:04pm 9.5ft 11s 27 36 mph 993.6mb 51f 42f
7:04pm 10ft 8s 31 38 mph 991.3mb 51f 43f
6:04pm 11ft 11s 29 34 mph 989.1mb 51f 46f
5:04pm 11ft 8s 31 40 mph 986.2mb 51f 48f
4:04pm 12ft 8s 25 29 mph 983.7mb 51f 53f
3:04pm  -   -  22 29 mph 983mb 51f 55f
2:04pm 12ft 8s 27 34 mph 982.7mb 51f 55f
1:04pm 11ft 8s 25 29 mph 983.4mb 51f 55f
12:04pm 11ft 8s 25 29 mph 984.5mb 51f 55f
11:04am 11ft 8s 27 34 mph 985.9mb 51f 56f
10:04am 10ft 8s 27 34 mph 987.3mb 51f 56f
9:04am 8ft 6s 27 31 mph 988.4mb 51f 56f
8:04am 7.5ft 6s 27 29 mph 989.7mb 51f 56f
7:04am 7ft 6s 25 29 mph 990.9mb 51f 56f
6:04am 7ft 6s 22 29 mph 992mb 51f 55f
5:04am 6.5ft 6s 20 22 mph 993.8mb 51f 54f
3:04am 7ft 6s 22 29 mph 996.3mb 51f 54f
2:04am 5.5ft 5s 27 31 mph 997.2mb 51f 53f
1:04am 5ft 5s 20 25 mph 999mb 51f 51f
12:04am 4.5ft 5s 25 31 mph 1000.6mb 51f 51f
Sat 11/18 11:04pm 3.5ft 4s 25 29 mph 1002.2mb 51f 50f
10:04pm 3.5ft 4s 20 22 mph 1003.7mb 51f 50f
9:04pm 3ft 4s 16 20 mph 1005.3mb 51f 49f
8:04pm 2.5ft 4s 18 20 mph 1006.3mb 51f 48f
7:04pm 2ft 3s 18 20 mph 1007mb 52f 48f
6:04pm 1.6ft 5s 13 18 mph 1007.6mb 51f 46f
5:04pm 2ft 8s 13 18 mph 1008.3mb 52f 44f
4:04pm 1.6ft 11s 9 13 mph 1008.1mb 51f 42f
3:04pm 1.3ft 5s 2 7 mph 1008.9mb 52f 40f
2:04pm 1.6ft 5s 7 9 mph 1009.1mb 52f 40f
1:04pm 2ft 11s 4 7 mph 1009.6mb 52f 39f
12:04pm 1.3ft 5s 7 9 mph 1010.3mb 52f 38f
11:04am 2ft 5s 7 9 mph 1011.5mb 52f 37f
10:04am 2.5ft 5s 9 11 mph 1012mb 51f 36f
9:04am 2.5ft 5s 11 13 mph 1012.6mb 51f 35f
8:04am 3.5ft 4s 18 20 mph 1012.1mb 51f 35f
7:04am 3.5ft 5s 16 18 mph 1011.9mb 51f 34f
6:04am 5ft 4s 20 25 mph 1011.3mb 51f 35f
5:04am 5ft 4s 29 34 mph 1010.7mb 51f 35f
4:04am 4.5ft 6s 29 36 mph 1010.7mb 51f 35f
3:04am 5ft 5s 25 31 mph 1011.1mb 52f 35f
2:04am 4.5ft 4s 25 34 mph 1010.8mb 52f 35f
1:04am 5ft 5s 27 31 mph 1009.9mb 52f 35f
12:04am 5ft 4s 27 31 mph 1010.3mb 52f 35f
Fri 11/17 11:04pm 4.5ft 5s 22 27 mph 1010.2mb 52f 35f
10:04pm 5ft 6s 27 31 mph 1009.2mb 52f 35f
9:04pm 5ft 5s 29 36 mph 1009.6mb 52f 35f
8:04pm 4.5ft 4s 27 34 mph 1009.3mb 52f 36f
7:04pm 5.5ft 5s 29 34 mph 1008.5mb 52f 36f
6:04pm 5.5ft 5s 29 36 mph 1008mb 52f 37f
5:04pm 5.5ft 5s 29 36 mph 1006.9mb 52f 38f
4:04pm 5.5ft 6s 31 36 mph 1006.2mb 52f 39f
3:04pm 5ft 5s 29 34 mph 1005mb 52f 40f
2:04pm 5ft 5s 29 34 mph 1004.2mb 52f 41f
12:04pm 5ft 4s 29 36 mph 1002.3mb 52f 44f
11:04am 5.5ft 5s 29 36 mph 1002mb 52f 44f
10:04am 5ft 5s 27 34 mph 1002mb 52f 45f
9:04am 5ft 5s 31 36 mph 1001.1mb 52f 45f
8:04am 5ft 5s 29 34 mph 1000.6mb 52f 45f
7:04am 4.5ft 5s 25 34 mph 1000.6mb 52f 45f
6:04am 4.5ft 4s 27 34 mph 999.9mb 52f 45f
5:04am 4ft 5s 27 31 mph 999.4mb 52f 45f
4:04am 4ft 4s 22 29 mph 999.5mb 52f 44f
3:04am 4ft 4s 22 27 mph 999.5mb 52f 44f
2:04am 3ft 4s 22 27 mph 999.3mb 52f 42f
1:04am 3ft 4s 22 27 mph 998.9mb 52f 43f
12:04am 4ft 6s 22 25 mph 999mb 52f 43f
Thu 11/16 11:04pm 4.5ft 6s 20 25 mph 998.7mb 52f 44f
10:04pm 4ft 8s 16 20 mph 1000.4mb 52f 45f
9:04pm 4ft 8s 16 18 mph 1002.1mb 52f 46f
8:04pm 3.5ft 6s 11 13 mph 1003.2mb 52f 46f
7:04pm 3.5ft 6s 9 11 mph 1004.6mb 52f 46f
6:04pm 3.5ft 6s 2 4 mph 1005.8mb 52f 46f
5:04pm 3.5ft 11s 4 4 mph 1006.4mb 52f 47f
4:04pm 2.5ft 6s 11 13 mph 1008.3mb 52f 47f
3:04pm 2.5ft 6s 7 9 mph 1008.3mb 52f 47f
2:04pm 2.5ft 6s 9 11 mph 1009.2mb 52f 47f
1:04pm 2ft 4s 11 13 mph 1010.8mb 52f 47f
12:04pm 1.6ft 4s 18 20 mph 1011.4mb 52f 46f